星链-32578 (STARLINK-32578)

导读

STARLINK-32578是美国SpaceX公司星链(Starlink)星座的第二代低轨通信卫星,于2024年11月14日发射入轨。星链星座旨在为全球提供高速低延迟宽带互联网服务,尤其覆盖偏远地区。该卫星采用平板设计,搭载氪工质霍尔推进器,具备自主避撞能力,寿命末期会主动离轨并在大气层烧毁,保障太空环境安全,助力星链全球网络容量与覆盖持续扩展。

基本信息
目录编号:
61979
目录名称:
STARLINK-32578
国际标识:
2024-210W
轨道中心:
EARTH
卫星名称:
星链-32578
卫星全名:
星链-32578 (STARLINK-32578)
卫星状态:
在轨 (已飞行666 天)
发射日期:
2024-11-14 UTC
国别 :
美国 (US)
星等 :
--
该卫星已列入 空间交会检测服务 Space Conjunction Data Service (SCDS) ,当前飞行风险评估等级: 高风险
轨道信息
数据来源 国际轨道数据 AOE轨道数据
星历时间 2026-09-11T14:22:11+0800
13小时前
查看轨道信息
2026-09-05T22:00:00+0800
6天前
查看轨道信息
半长轴 6861.1km 6861.208km
偏心率 0.0001336 0.0001708
轨道倾角 43.002° 43.003°
近地点辐角 249.698° 278.556°
升交点赤经 211.591° 243.688°
平近点角 110.373° 117.503°
近地点 482.046km 481.899km
远地点 483.88km 484.243km
周期 94.265分钟 94.267分钟
每日圈数 15.27609 15.275728
详细信息
固有亮度:
5
最大亮度:
2.5
卫星平台:
Starlink V1.0
覆盖范围:
全球
运营商:
太空探索技术公司
运营商所在国:
美国
制造商(研发单位):
太空探索技术公司
制造商所在国:
美国
使用方式:
暂无
卫星简介
Starlink 计划是 SpaceX 推出的全球卫星互联网项目,通过发射低轨道卫星,为全球尤其是偏远地区提供高速、低延迟的互联网服务。自 2019 年起,Starlink 已部署数千颗卫星,旨在缩小全球数字鸿沟,推动互联网普及。该项目还为军事、航空等行业提供通信支持,带来广泛经济效益。
2D轨道图
3D轨道图
轨道高度分析图
轨道倾角分析图
轨道综合分析图
查看轨道综合分析图
交会数据列表
事件ID 空间交会对象 最接近时刻(TCA) 交会距离 交会风险概率(CRP) 交会风险指数(CRI) 操作
CDM_260913-022506-197906-704521
2026-09-13T
02:25:10+0000
0.465 km
远距离
1.896382E-4 高风险 0.81
CDM_260911-041805-771406-197921
2026-09-11T
04:18:29+0000
0.712 km
远距离
3.969904E-5 中风险 0.67
CDM_260913-035906-197906-704521
2026-09-13T
03:59:19+0000
1.042 km
极远距离
1.764139E-5 中风险 0.6
CDM_260913-005106-197906-704521
2026-09-13T
00:51:01+0000
1.320 km
极远距离
7.765604E-6 低风险 0.53
CDM_260911-024405-771406-197922
2026-09-11T
02:44:20+0000
1.664 km
极远距离
2.400878E-6 低风险 0.43
CDM_260913-053306-197906-704521
2026-09-13T
05:33:27+0000
2.102 km
极远距离
1.959758E-6 低风险 0.41
CDM_260912-231606-197906-704521
2026-09-12T
23:16:52+0000
2.364 km
极远距离
1.526388E-6 低风险 0.39
CDM_260910-031906-187006-197921
OBJECT B (61870)
2026-09-10T
03:19:33+0000
2.998 km
极远距离
1.198519E-6 低风险 0.37
与全量物体交会距离演化趋势
与全量物体交会风险概率演化趋势